TimeEDT,TemperatureF,Dew PointF,Humidity,Sea Level PressureIn,VisibilityMPH,Wind Direction,Wind SpeedMPH,Gust SpeedMPH,PrecipitationIn,Events,Conditions,WindDirDegrees,DateUTC
12:54 AM,71.1,68.0,90,30.05,5.0,Calm,Calm,-,N/A,,Clear,0,2007-08-13 04:54:00
1:54 AM,69.1,66.9,93,30.03,4.0,Calm,Calm,-,N/A,,Clear,0,2007-08-13 05:54:00
2:54 AM,69.1,66.9,93,30.02,3.0,Calm,Calm,-,N/A,,Clear,0,2007-08-13 06:54:00
3:25 AM,68.0,66.2,94,30.10,1.8,Calm,Calm,-,N/A,,Clear,0,2007-08-13 07:25:00
3:27 AM,68.0,66.2,94,30.10,1.0,Calm,Calm,-,N/A,,Mist,0,2007-08-13 07:27:00
3:34 AM,66.2,64.4,94,30.10,0.5,Calm,Calm,-,N/A,Fog,Fog,0,2007-08-13 07:34:00
3:46 AM,66.2,66.2,100,30.10,0.2,Calm,Calm,-,N/A,Fog,Fog,0,2007-08-13 07:46:00
3:52 AM,66.2,66.2,100,30.10,1.0,Calm,Calm,-,N/A,,Mist,0,2007-08-13 07:52:00
3:54 AM,66.9,64.9,93,30.01,1.2,Calm,Calm,-,N/A,,Scattered Clouds,0,2007-08-13 07:54:00
3:58 AM,66.2,64.4,94,30.10,2.0,Calm,Calm,-,N/A,,Partly Cloudy,0,2007-08-13 07:58:00
4:21 AM,66.2,64.4,94,30.09,3.0,Calm,Calm,-,N/A,,Clear,0,2007-08-13 08:21:00
4:54 AM,66.9,64.0,90,30.01,4.0,Calm,Calm,-,N/A,,Clear,0,2007-08-13 08:54:00
5:15 AM,66.2,64.4,94,30.10,1.8,Calm,Calm,-,N/A,,Clear,0,2007-08-13 09:15:00
5:32 AM,66.2,64.4,94,30.10,3.0,Calm,Calm,-,N/A,,Clear,0,2007-08-13 09:32:00
5:38 AM,64.4,62.6,94,30.10,1.5,South,3.5,-,N/A,,Partly Cloudy,170,2007-08-13 09:38:00
5:40 AM,64.4,62.6,94,30.11,0.8,South,3.5,-,N/A,,Mist,170,2007-08-13 09:40:00
5:49 AM,64.4,64.4,100,30.11,0.2,Calm,Calm,-,N/A,Fog,Fog,0,2007-08-13 09:49:00
5:54 AM,64.0,63.0,96,30.03,0.2,Calm,Calm,-,N/A,Fog,Fog,0,2007-08-13 09:54:00
6:18 AM,64.4,62.6,94,30.11,1.0,Calm,Calm,-,N/A,,Mist,0,2007-08-13 10:18:00
6:21 AM,64.4,62.6,94,30.11,0.8,Calm,Calm,-,N/A,,Clear,0,2007-08-13 10:21:00
6:28 AM,64.4,62.6,94,30.11,2.0,Calm,Calm,-,N/A,,Clear,0,2007-08-13 10:28:00
6:54 AM,64.0,63.0,96,30.04,0.2,Calm,Calm,-,N/A,Fog,Fog,0,2007-08-13 10:54:00
7:08 AM,64.4,62.6,94,30.13,0.2,Calm,Calm,-,N/A,Fog,Fog,0,2007-08-13 11:08:00
7:13 AM,64.4,62.6,94,30.13,1.0,Calm,Calm,-,N/A,,Clear,0,2007-08-13 11:13:00
7:54 AM,64.9,64.0,97,30.05,1.0,Calm,Calm,-,N/A,,Clear,0,2007-08-13 11:54:00
7:58 AM,64.4,62.6,94,30.12,3.0,Calm,Calm,-,N/A,,Clear,0,2007-08-13 11:58:00
8:05 AM,64.4,64.4,100,30.13,2.0,Calm,Calm,-,N/A,,Clear,0,2007-08-13 12:05:00
8:54 AM,72.0,64.9,78,30.05,5.0,NNW,6.9,-,N/A,,Haze,340,2007-08-13 12:54:00
9:54 AM,77.0,64.0,64,30.04,8.0,North,6.9,-,N/A,,Clear,350,2007-08-13 13:54:00
10:54 AM,82.0,62.1,51,30.04,10.0,North,8.1,-,N/A,,Clear,360,2007-08-13 14:54:00
11:54 AM,84.0,60.1,44,30.04,10.0,NNW,6.9,-,N/A,,Clear,330,2007-08-13 15:54:00
12:54 PM,86.0,60.1,41,30.02,10.0,North,11.5,17.3,N/A,,Clear,350,2007-08-13 16:54:00
1:54 PM,87.1,55.9,35,30.01,10.0,NW,6.9,-,N/A,,Clear,320,2007-08-13 17:54:00
2:54 PM,88.0,57.0,35,30.00,10.0,NNW,8.1,-,N/A,,Scattered Clouds,330,2007-08-13 18:54:00
3:54 PM,86.0,57.9,38,29.99,10.0,NNW,11.5,-,N/A,,Clear,340,2007-08-13 19:54:00
4:54 PM,86.0,59.0,40,29.97,10.0,WNW,8.1,-,N/A,,Clear,300,2007-08-13 20:54:00
5:54 PM,86.0,57.9,38,29.96,10.0,WNW,8.1,-,N/A,,Scattered Clouds,300,2007-08-13 21:54:00
6:54 PM,84.0,59.0,43,29.96,10.0,NNW,11.5,-,N/A,,Clear,330,2007-08-13 22:54:00
7:54 PM,81.0,60.1,49,29.95,10.0,West,4.6,-,N/A,,Clear,280,2007-08-13 23:54:00
8:54 PM,80.1,60.1,50,29.96,10.0,NNW,4.6,-,N/A,,Clear,330,2007-08-14 00:54:00
9:54 PM,79.0,60.1,52,29.98,10.0,North,8.1,-,N/A,,Clear,350,2007-08-14 01:54:00
10:54 PM,75.0,61.0,62,29.99,10.0,NNW,8.1,-,N/A,,Clear,340,2007-08-14 02:54:00
11:54 PM,75.0,59.0,57,29.98,10.0,NNW,8.1,-,N/A,,Clear,340,2007-08-14 03:54:00